Theta_e
308 308 308 307 307 307 306 306 306 305 305 305 305 305 305 307 305 304 302 300 300 300 305 307 305 308 310 311 315 316 324 323 323 323 324 320 322 320 324 325 324 335 334 333 338
307 307 307 307 307 306 306 306 306 306 306 305 305 305 306 306 304 302 303 307 306 306 307 305 306 308 309 310 312 315 316 320 318 318 320 320 321 321 324 326 327 332 336 337 339
305 306 306 306 306 306 306 306 306 305 306 306 304 304 305 305 302 301 309 307 306 306 306 306 306 307 309 310 310 310 314 312 315 314 315 317 320 319 324 326 325 327 325 339 339
306 306 307 306 306 306 306 306 305 305 305 305 306 305 305 304 300 302 308 305 306 303 301 301 305 306 305 307 309 310 309 310 310 311 312 316 317 320 321 322 322 321 320 331 339
305 306 304 305 305 306 305 306 306 306 306 305 306 305 304 302 302 301 305 307 304 300 300 301 302 305 305 305 306 308 307 307 307 308 309 310 315 319 320 319 322 322 321 324 333
305 305 305 304 304 305 306 306 307 306 306 306 305 305 304 303 301 301 300 300 300 300 300 300 301 302 304 305 304 305 305 305 306 307 308 309 311 314 319 320 321 323 322 324 332
305 304 304 304 303 305 306 306 306 306 306 306 305 305 303 302 301 300 300 301 301 300 300 300 301 302 302 304 303 304 306 304 304 305 307 312 311 312 314 317 322 323 323 320 330
303 303 303 303 303 303 304 306 306 306 306 305 305 304 303 302 301 300 300 300 301 301 300 300 300 302 301 301 302 304 304 304 302 302 306 312 308 310 315 320 323 324 323 320 326
304 304 305 305 305 305 304 305 304 305 304 304 303 302 301 299 301 301 302 301 302 301 301 301 301 301 302 303 301 301 299 300 304 304 306 311 306 307 309 317 322 323 324 321 322
306 306 306 305 304 304 304 304 300 300 300 302 301 297 296 299 300 299 299 300 300 301 302 302 301 302 302 302 301 297 300 300 299 303 305 308 312 312 314 321 322 321 323 319 327
305 305 304 304 304 304 304 299 296 295 296 295 294 297 297 297 296 298 299 301 302 302 304 304 303 302 300 301 301 298 298 299 299 299 302 306 306 307 310 315 323 323 318 322 323
303 303 303 303 304 304 299 298 297 297 296 295 296 296 296 296 297 299 301 303 303 303 304 303 303 301 300 301 300 300 296 296 299 302 302 306 309 311 308 317 321 323 322 324 318
303 303 303 304 304 302 299 299 298 297 293 294 296 297 298 299 301 300 302 303 301 302 303 304 303 302 301 303 303 302 301 299 299 304 306 310 312 313 314 318 320 321 321 319 317
304 304 304 304 302 300 299 299 298 297 283 290 296 298 299 300 301 300 303 303 305 304 305 305 304 304 304 303 304 304 301 301 301 304 308 309 316 317 318 320 321 319 317 312 311
305 304 304 302 300 299 299 298 296 294 287 292 295 298 295 297 300 304 304 306 308 307 303 306 307 306 305 304 303 303 301 302 303 307 310 313 316 319 319 321 318 314 309 307 304
305 304 302 300 299 298 297 295 295 288 284 287 292 294 293 296 301 303 305 305 305 308 307 306 305 304 303 303 304 302 305 305 306 307 312 310 316 319 319 320 314 308 306 304 302
304 304 301 300 299 296 295 293 289 286 286 288 293 295 294 294 300 302 303 304 306 306 298 303 308 308 307 306 306 307 310 310 311 312 311 315 317 309 309 314 309 306 304 303 301
301 299 294 294 294 295 295 289 285 280 283 291 294 294 292 298 298 299 300 304 304 305 305 303 309 308 309 312 312 310 310 313 317 316 315 311 312 308 303 302 300 299 299 299 299
297 295 296 295 294 296 288 283 282 291 293 294 293 288 288 296 298 295 296 302 305 305 306 305 309 308 308 307 311 313 312 310 313 308 310 310 308 308 304 302 300 299 298 297 296
299 298 297 295 296 293 286 288 289 293 293 294 292 292 289 293 296 293 295 300 304 304 304 306 308 308 306 308 309 310 308 313 314 315 313 314 312 311 308 304 302 300 298 296 296
299 290 297 296 293 285 283 280 291 292 293 294 295 293 295 296 297 296 298 302 303 304 305 306 308 310 309 311 311 310 311 310 309 312 314 314 311 307 307 306 304 301 298 297 296
293 288 296 295 286 268 277 283 292 293 294 295 296 295 296 297 298 299 300 302 302 301 306 305 307 310 311 309 309 309 309 308 313 311 310 309 308 302 299 302 304 302 300 298 297
287 287 294 294 284 286 286 292 293 293 294 295 297 297 297 296 298 299 299 300 300 300 303 304 303 306 309 307 307 307 305 305 306 309 309 311 308 301 297 296 296 300 299 298 297
287 288 286 283 282 284 288 290 290 293 294 296 296 295 297 295 297 297 299 298 298 297 301 303 305 304 308 307 304 303 304 304 303 305 308 308 307 303 299 297 295 295 296 295 296
284 285 285 285 285 287 289 293 292 290 293 295 291 296 297 296 296 296 297 296 297 296 297 301 303 304 302 301 302 301 300 303 302 296 303 307 306 303 300 297 295 293 293 294 294
288 289 286 281 291 292 290 294 295 294 294 293 295 295 297 296 296 296 296 296 296 295 294 297 305 298 300 298 301 301 299 299 301 300 301 302 303 299 297 296 295 294 294 294 293
291 292 291 290 291 288 289 294 294 293 292 294 295 295 295 294 293 294 294 295 294 295 293 293 293 295 301 293 295 301 299 297 300 299 298 301 301 299 300 299 297 296 294 293 293
Wind_Speed
6 6 7 7 8 9 10 11 12 11 12 13 13 14 15 16 23 23 11 8 7 5 2 7 10 11 6 3 3 0 7 18 27 23 15 3 6 2 2 5 4 3 2 7 21
8 8 9 9 9 9 10 12 13 13 13 13 14 15 16 16 22 18 8 9 8 7 6 4 3 8 3 2 3 5 9 19 7 8 4 9 13 4 5 5 4 4 0 7 27
9 9 10 11 10 10 12 13 13 13 13 13 14 14 14 16 7 6 8 13 15 7 3 8 5 2 2 2 3 5 19 13 14 12 12 11 13 7 8 12 5 2 7 8 17
10 11 12 11 11 12 13 14 14 14 13 14 13 13 14 10 6 3 9 5 6 4 13 5 2 3 3 5 6 9 13 6 6 12 11 10 12 13 11 12 6 6 1 4 15
14 13 13 12 13 13 13 14 14 15 14 14 14 12 9 5 10 13 13 16 19 15 3 5 5 3 6 5 5 12 11 7 7 14 13 16 16 12 21 13 8 7 3 6 12
15 13 13 14 14 14 16 17 16 16 15 15 14 12 9 18 13 12 11 12 11 8 2 5 5 6 4 5 8 5 8 11 8 11 11 16 19 13 6 7 8 8 5 7 11
16 17 16 15 15 16 17 17 18 18 16 15 14 13 12 20 12 12 13 21 23 20 7 9 9 6 5 3 5 7 12 13 13 9 8 7 18 30 10 19 9 7 6 4 11
18 15 15 14 14 15 17 19 20 20 18 18 14 12 8 10 15 19 17 19 10 10 16 17 16 8 8 4 4 4 5 14 5 8 7 9 25 20 9 13 15 9 7 3 9
15 17 17 17 17 17 19 20 20 22 20 14 9 5 8 7 8 8 12 8 5 5 8 11 8 7 3 14 9 6 9 6 6 10 6 14 13 18 20 16 15 8 8 5 6
20 19 17 14 13 14 15 16 19 9 4 6 5 3 5 4 3 7 14 13 9 9 6 7 5 8 12 9 18 8 9 11 11 5 14 16 16 8 15 12 11 8 9 4 8
17 16 16 15 12 10 11 6 6 4 2 5 5 4 7 11 17 7 5 4 6 5 8 9 8 17 25 22 10 6 9 9 6 15 9 14 18 21 18 14 12 8 5 1 3
19 18 16 12 8 6 4 3 4 2 8 9 8 7 19 10 6 7 3 5 4 9 11 5 21 26 15 14 18 13 7 10 12 11 11 13 14 11 16 15 15 12 7 7 4
13 10 10 7 5 2 3 4 1 0 1 6 5 4 5 5 5 8 7 1 6 8 14 16 24 14 20 17 20 21 19 17 12 3 16 4 10 11 13 11 9 11 8 6 6
8 7 4 5 3 4 3 1 2 1 5 6 3 4 1 1 6 9 9 7 6 7 10 13 19 16 14 24 18 20 24 18 15 6 10 14 5 9 17 14 13 8 9 9 7
7 4 7 5 6 2 1 2 1 1 4 8 6 4 8 5 7 2 6 6 9 13 3 6 6 15 15 21 22 15 15 22 18 16 15 15 4 4 14 16 8 9 9 8 9
6 9 10 5 3 3 2 1 1 6 5 9 5 8 8 4 4 6 4 6 7 9 5 13 5 12 8 14 20 13 10 16 11 9 7 13 9 7 13 12 11 8 10 8 12
15 13 5 3 1 1 1 2 5 5 4 10 6 9 5 6 6 3 9 8 5 7 5 5 3 2 7 11 15 16 7 6 7 5 5 8 14 3 8 6 14 13 9 8 9
13 9 11 6 2 0 1 5 6 3 5 5 6 14 2 7 4 7 8 7 2 4 4 3 3 2 7 6 4 13 9 3 6 6 4 4 4 3 6 14 15 14 11 9 9
11 9 5 9 3 1 5 5 6 3 5 8 11 6 6 4 2 6 3 3 4 5 5 4 3 2 3 2 2 6 7 1 2 2 4 3 4 2 7 12 13 11 11 10 9
5 3 3 9 3 2 5 3 1 3 5 4 4 1 3 6 7 5 4 3 8 3 4 4 5 3 3 3 6 2 5 3 3 4 4 5 7 3 4 9 9 10 10 8 8
3 3 5 4 2 6 3 4 2 4 5 3 4 4 5 5 3 4 5 4 5 8 11 5 3 5 0 6 2 3 2 2 2 3 3 4 4 7 3 8 10 8 9 7 7
4 2 7 1 4 1 2 3 4 4 3 3 4 4 3 5 5 3 5 4 8 13 8 3 3 3 3 3 1 3 4 3 1 2 4 3 3 8 8 7 8 9 10 7 6
3 2 4 1 3 2 3 1 3 3 2 3 3 1 4 3 5 4 5 6 8 11 8 7 4 3 6 3 3 6 8 5 5 3 7 3 3 5 7 10 8 9 8 5 7
3 2 4 4 1 6 3 2 1 3 2 2 4 4 7 3 2 6 8 5 12 9 14 2 6 4 6 4 4 6 18 10 4 4 8 8 7 6 7 9 8 7 7 6 6
3 2 3 0 3 3 2 1 3 4 2 0 5 4 4 4 6 5 6 8 7 16 10 4 7 9 9 6 9 17 18 20 12 2 6 8 10 6 6 6 5 5 5 6 6
4 4 2 2 2 4 2 0 2 3 0 3 2 8 5 3 3 5 8 6 4 12 10 8 3 5 6 11 15 17 23 18 14 10 11 11 10 4 6 6 7 6 5 5 5
4 4 4 2 2 3 2 2 1 2 3 3 3 4 4 3 4 8 8 10 8 8 5 5 3 5 5 9 6 10 13 13 5 8 2 6 3 2 8 9 7 6 5 6 5
Wind_Direction
355 332 327 329 333 333 332 328 325 324 326 329 332 331 327 323 308 317 278 260 267 267 289 337 319 352 346 317 283 258 244 237 233 237 239 235 244 252 292 274 306 240 220 286 164
333 330 327 320 321 320 319 319 318 313 315 320 323 325 325 325 316 300 301 288 257 247 243 352 346 359 340 307 271 208 241 245 246 236 275 252 251 210 239 247 264 311 291 156 156
305 305 306 308 300 305 311 313 313 315 313 311 314 314 320 324 330 248 127 84 88 100 275 263 265 77 257 213 236 271 243 260 277 320 320 322 306 217 223 245 204 252 323 180 169
301 292 298 301 302 300 306 303 302 307 307 305 304 312 318 319 295 226 180 159 29 358 325 354 53 156 230 223 210 250 262 283 312 300 306 303 321 305 243 239 192 193 140 243 199
297 293 294 299 294 294 300 298 298 298 300 302 302 308 319 262 251 245 247 257 287 313 252 173 189 197 225 235 246 251 265 272 271 283 285 291 281 290 280 273 236 279 341 251 233
295 301 297 300 302 297 291 296 294 294 295 296 297 300 289 266 262 273 263 265 266 278 209 195 215 200 266 241 239 279 285 275 269 270 283 269 273 303 275 245 206 212 256 297 234
298 298 298 294 295 291 292 294 295 289 291 292 290 288 261 253 250 261 270 276 281 269 244 236 241 200 192 277 272 270 276 281 265 255 253 242 266 244 278 264 265 234 235 352 253
293 293 297 297 295 295 297 293 294 292 293 289 284 274 254 258 277 263 268 274 255 248 241 251 246 222 220 294 324 270 268 253 232 210 220 184 252 252 264 228 247 240 250 282 281
294 293 293 295 293 292 292 294 298 298 293 280 267 219 260 284 266 273 236 233 215 251 256 247 197 211 210 226 240 210 246 256 283 221 232 192 259 263 262 244 230 222 234 292 344
294 296 299 303 299 296 294 300 302 306 65 149 121 47 278 255 249 259 259 250 263 254 231 200 195 204 210 198 224 198 200 231 234 231 211 231 245 251 278 216 213 217 233 340 342
298 300 300 302 304 298 305 326 9 345 23 212 197 242 291 282 295 243 234 265 207 194 207 187 203 214 214 211 219 199 226 255 237 232 242 237 238 239 252 261 209 203 210 9 69
295 294 296 292 287 273 320 73 111 243 308 271 256 254 268 274 293 264 176 208 206 226 214 211 225 219 211 216 215 219 206 238 264 269 226 249 260 248 237 248 214 204 208 143 120
287 284 278 273 232 241 94 120 76 42 303 296 224 239 284 164 259 292 168 238 221 233 224 216 237 209 201 213 213 213 214 222 224 303 226 191 267 240 258 239 209 204 189 115 130
267 277 249 196 199 140 81 112 328 143 64 285 347 295 311 242 274 221 212 212 211 252 243 241 257 225 207 213 194 216 211 222 228 237 243 177 255 214 212 188 194 152 143 122 71
241 224 169 172 139 96 111 294 258 96 18 310 306 298 316 206 297 187 204 209 259 267 220 248 227 193 206 211 202 236 194 207 210 227 234 191 231 171 174 182 167 129 112 106 90
164 152 152 137 93 113 302 286 138 43 270 330 325 336 352 305 282 307 292 223 257 284 236 265 292 186 200 196 197 193 198 196 217 252 226 214 211 165 177 177 144 131 122 112 99
137 146 139 106 102 328 223 65 32 107 339 318 336 335 333 289 309 321 322 315 333 320 343 311 175 191 233 188 202 199 173 173 195 173 240 198 195 15 334 196 143 130 103 94 97
125 127 82 68 19 212 183 49 65 242 262 308 312 315 303 347 321 315 320 342 345 303 294 317 333 217 169 231 196 191 219 233 194 172 136 339 80 30 36 77 89 98 111 100 96
127 94 57 10 20 228 71 50 202 244 317 322 322 17 320 344 2 351 301 299 304 318 319 305 285 254 317 307 187 147 204 187 237 25 101 115 98 125 89 80 89 90 86 78 73
131 99 38 359 22 58 71 141 267 254 315 305 335 61 304 313 336 15 316 279 315 320 290 285 294 352 350 279 68 262 131 187 216 131 86 83 65 22 89 106 99 96 90 88 91
116 56 357 14 37 50 113 211 269 278 298 299 312 298 272 302 285 294 286 284 323 308 309 293 272 313 227 22 5 339 3 10 121 16 122 122 75 341 66 120 125 120 121 112 82
103 52 352 16 48 18 103 174 263 311 279 268 256 253 263 304 282 294 302 281 336 321 332 302 320 27 343 264 325 332 321 260 69 83 41 69 68 10 52 82 112 121 111 110 109
99 189 355 5 105 67 245 296 260 327 329 326 296 337 281 280 307 286 301 281 335 338 342 333 14 15 338 22 28 33 341 330 83 65 38 88 105 53 57 66 66 96 99 98 87
91 66 342 47 138 124 143 281 303 282 269 302 284 296 326 302 244 304 308 300 326 342 348 15 14 77 73 33 327 26 17 19 82 75 81 59 106 73 70 82 78 69 78 77 79
40 231 183 216 348 112 205 226 355 349 310 338 342 350 355 305 319 317 315 312 319 349 356 55 36 52 62 32 51 54 32 39 57 8 76 98 80 59 56 73 82 99 96 86 91
132 129 13 120 119 97 339 255 341 336 79 316 321 319 321 267 310 310 333 10 344 327 348 346 32 345 24 4 42 50 24 23 37 46 69 86 69 31 82 90 82 94 100 99 102
129 95 100 335 110 88 232 225 292 49 286 266 297 318 313 263 250 264 270 279 274 314 313 12 36 14 336 346 16 34 0 359 15 13 128 74 93 83 60 52 38 53 74 87 87